Voltar ao catálogo

STARLINK-4176

AtivoComunicaçõesVLEO
NORAD 53289·PAYLOAD·🇺🇸 United States

Lançado Jul 24, 2022 de Cape Canaveral Space Force Station

Loading…

Próximas Passagens (próximas 24 horas)

TLE

AtualizadoSource: CelesTrak SupGP

Época: Sep 14, 2026, 21:26 UTC

1 53289C 22086AZ  26257.89354167  .00027637  00000+0  81683-3 0  2570
2 53289  53.1600  35.6242 0001260  81.4508 174.7231 15.34365492    19

Acompanhe STARLINK-4176 em tempo real com AllMySat

Download on the App Store